sat.trackr.live / text

‹ back to catalog

STARLINK-3870

NORAD 52451 · 2022-049A

PAYLOAD ACTIVE UNKNOWN

§ Identity

Operator
Country
US
Launch date
2022-05-06
Launch site
AFETR
Launch vehicle
Mass (kg)
RCS (m²)

Purposes: comms

External: N2YO · Heavens-Above · Gunter

§ Orbital elements

Epoch: 2026-05-25T04:08:01.325184Z

Period
88.18 min
Inclination
53.2033°
Eccentricity
0.0010041
Mean motion
16.33080802 rev/d
Perigee alt
177.7 km
Apogee alt
190.9 km
Semi-major
6,562.4 km
B*
5.7257e-4
RAAN
56.5639°
Arg perigee
239.1897°
Mean anomaly
120.8161°
Rev number
22,406

§ Raw data

STARLINK-38701 52451U 22049A   26145.17223756  .03688231  12127-4  57257-3 0  99922 52451  53.2033  56.5639 0010041 239.1897 120.8161 16.33080802224068

JSON: /api/v1/satellites/52451 · /tle

For live sub-satellite position, see the globe view (requires WebGL).

§ Visibility from observer

Set your observer location to see the next 7 days of passes ≥ 10°. The values pass through the URL so the page stays shareable.

No JS? Fill the form by hand. The geolocation button needs JavaScript.